Flag for Cuba Weather past 2 weeks in Camagüey, Cuba

Now
70 °F

Passing clouds.


Feels Like: 70 °F
Forecast: 69 / 78 °F
Wind: 7 mph from Northeast

Location: Camaguey Aeropuerto

Current Time: Mar 29, 2015 at 12:52:42 AM

Latest Report: Mar 28, 2015 at 11:53 PM


Visibility: 6 mi

Pressure: 30.15 "Hg

Humidity: 88%

Dew point: 66 °F

Location of CamagüeyLocation

Historic Weather in Camagüey — Graph

°F

Camagüey temperature yesterday

Maximum temperature yesterday: 75 °F (at 12:50 AM)
Minimum temperature yesterday: 70 °F (at 8:50 AM)
Average temperature yesterday: 72 °F

Past Weeks' High & Low Weather Summary

 TemperatureHumidityPressure
High95 °F (Mar 25, 2:50 PM)94% (Mar 15, 6:50 AM)30.15 "Hg (Mar 15, 6:50 AM)
Low63 °F (Mar 18, 5:50 AM)23% (Mar 24, 1:50 PM)29.95 "Hg (Mar 18, 3:51 PM)
Average77 °F66%30.06 "Hg
* Reported Mar 13 11:50 PM — Mar 28 11:53 PM, Camagüey, Weather by CustomWeather, © 2015

Note: Actual official high and low records may vary slightly from our data, if they occured in-between our weather recording intervals... More about our weather records

Advertising

Camagüey weather history for previous 24 hours

 ConditionsComfort  
Time TempWeatherWind HumidityBarometerVisibility
11:53 PM
Sat, Mar 28
70 °FPassing clouds.7 mph88%30.15 "Hg6 mi
10:52 PM70 °FPassing clouds.10 mph88%30.15 "Hg6 mi
9:50 PM70 °FPassing clouds.6 mph94%30.15 "Hg6 mi
8:50 PM72 °FPassing clouds.9 mph83%30.12 "Hg6 mi
7:50 PM72 °FPartly sunny.6 mph88%30.12 "Hg6 mi
6:50 PM73 °FPartly sunny.5 mph83%30.09 "Hg6 mi
5:50 PM73 °FPartly sunny.9 mph83%30.07 "Hg6 mi
4:50 PM73 °FPartly sunny.8 mph83%30.07 "Hg6 mi
3:50 PM73 °FPartly sunny.9 mph83%30.07 "Hg6 mi
2:50 PM72 °FLight rain. Partly sunny.7 mph88%30.09 "Hg5 mi
1:50 PM72 °FLight rain. Partly sunny.6 mph83%30.12 "Hg5 mi
12:50 PM70 °FLight rain. Partly sunny.6 mph88%30.12 "Hg5 mi
11:50 AM72 °FLight rain. Overcast.3 mph83%30.15 "Hg4 mi
10:50 AM72 °FLight rain. Overcast.7 mph88%30.12 "Hg5 mi
9:51 AM70 °FLight rain. Overcast.2 mph94%30.12 "Hg5 mi
8:50 AM70 °FHeavy rain. Overcast.5 mph88%30.12 "Hg1 mi
7:51 AM72 °FPassing clouds.5 mph88%30.07 "Hg5 mi
6:51 AM72 °FPassing clouds.6 mph88%30.07 "Hg6 mi
5:50 AM72 °FPassing clouds.1 mph88%30.04 "Hg6 mi
4:50 AM72 °FPassing clouds.2 mph88%30.04 "Hg6 mi
3:50 AM73 °FPassing clouds.5 mph83%30.04 "Hg6 mi
2:50 AM73 °FPassing clouds.6 mph89%30.04 "Hg6 mi
1:50 AM73 °FClear.5 mph83%30.04 "Hg6 mi
12:50 AM75 °FClear.7 mph83%30.07 "Hg6 mi
Weather by CustomWeather, © 2015

See weather overviewHow to use our weather pages